This demonstration page uses our WeatherBlox Daily Observations layout. Learn more.

Left ArrowRight Arrow

38.20091, -84.87328

Hourly Observations for May 22, 2020

Temp ( °F °C ) Dew Point ( °F °C ) Humidity (%) Winds ( mph kmh ) Pressure ( in mb ) Visibility ( mi km ) Precip ( " mm )
12:53 am 00:53 Mostly Clear 61 16.1 57 13.9 87 87 Calm 30.04 1017 10 16 0.00 0.00
1:53 am 01:53 Clear 59 15 56 13.3 90 90 Calm 30.03 1017 10 16 0.00 0.00
2:53 am 02:53 Mostly Cloudy 59 15 56 13.3 90 90 Calm 30.01 1016 10 16 0.00 0.00
3:53 am 03:53 Mostly Cloudy 58 14.4 55 12.8 90 90 Calm 30.01 1016 10 16 0.00 0.00
4:53 am 04:53 Partly Cloudy 55 12.8 53 11.7 93 93 Calm 30.01 1016 9 14 0.00 0.00
5:07 am 05:07 Partly Cloudy with Mist and Fog 56 13.3 54 12.2 93 93 Calm 30.02 1017 2 3 0.00 0.00
5:13 am 05:13 Mostly Cloudy with Mist and Fog 55 12.8 54 12.2 96 96 Calm 30.02 1017 1 2 0.00 0.00
5:20 am 05:20 Mostly Cloudy with Fog 55 12.8 53 11.7 93 93 Calm 30.02 1017 0 0 0.00 0.00
5:53 am 05:53 Mostly Cloudy with Fog 54 12.2 52 11.1 93 93 Calm 30.01 1016 1 1 0.00 0.00
6:02 am 06:02 Cloudy with Mist and Fog 54 12.2 53 11.7 97 97 Calm 30.02 1017 1 2 0.00 0.00
6:11 am 06:11 Mostly Cloudy with Mist and Fog 55 12.8 53 11.7 93 93 Calm 30.02 1017 1 1 0.00 0.00
6:53 am 06:53 Mostly Cloudy with Fog 57 13.9 55 12.8 93 93 Calm 30.02 1017 N/A 0.00 0.00
7:53 am 07:53 Mostly Cloudy with Fog 59 15 57 13.9 93 93 Calm 30.03 1017 0 0 0.00 0.00
8:53 am 08:53 Mostly Cloudy with Mist and Fog 61 16.1 59 15 93 93 NE 3 6 30.03 1017 1 1 0.00 0.00
8:56 am 08:56 Cloudy with Mist and Fog 61 16.1 59 15 93 93 Calm 30.03 1017 1 2 0.00 0.00
9:02 am 09:02 Cloudy with Mist and Fog 61 16.1 59 15 93 93 ENE 3 6 30.03 1017 3 5 0.00 0.00
9:53 am 09:53 Cloudy 68 20 61 16.1 78 78 NE 3 6 30.03 1017 10 16 0.00 0.00
10:53 am 10:53 Cloudy 70 21.1 60 15.6 71 71 VRB 5 7 30.02 1017 10 16 0.00 0.00
11:53 am 11:53 Mostly Cloudy 74 23.3 59 15 60 60 Calm 30.01 1016 10 16 0.00 0.00
12:53 pm 12:53 Mostly Cloudy 75 23.9 60 15.6 60 60 VRB 3 6 29.99 1016 10 16 0.00 0.00
1:53 pm 13:53 Mostly Cloudy 75 23.9 58 14.4 55 55 Calm 29.98 1015 10 16 0.00 0.00
2:53 pm 14:53 Mostly Cloudy 76 24.4 59 15 56 56 SSW 6 9 29.97 1015 10 16 0.00 0.00
3:53 pm 15:53 Mostly Cloudy 78 25.6 60 15.6 54 54 WSW 6 9 29.96 1015 10 16 0.00 0.00
4:53 pm 16:53 Cloudy 78 25.6 59 15 52 52 WSW 6 9 29.95 1014 10 16 0.00 0.00
5:53 pm 17:53 Cloudy 77 25 59 15 54 54 SW 5 7 29.95 1014 10 16 0.00 0.00
6:53 pm 18:53 Cloudy 76 24.4 59 15 56 56 SW 7 11 29.94 1014 10 16 0.00 0.00
7:53 pm 19:53 Cloudy 76 24.4 57 13.9 52 52 W 3 6 29.93 1014 10 16 0.00 0.00
8:53 pm 20:53 Cloudy 70 21.1 61 16.1 73 73 SW 3 6 29.95 1014 10 16 0.00 0.00
9:53 pm 21:53 Mostly Cloudy 71 21.7 60 15.6 68 68 Calm 29.95 1014 10 16 0.00 0.00
10:53 pm 22:53 Mostly Cloudy 67 19.4 60 15.6 79 79 Calm 29.96 1015 10 16 0.00 0.00
11:53 pm 23:53 Cloudy 67 19.4 61 16.1 81 81 SSE 3 6 29.96 1015 10 16 0.00 0.00

Powered by AerisWeather